STARLINK-2453, 47845

Orbit data source: Space-Track

STARLINK-2453, 47845 is a payload satellite owned by SpaceX/Seattle (US) in LEO that was launched on Thu, 11 Mar 2021 UTC via an FALCON 9 launch vehicle from the Air Force Eastern Test Range (AFETR). Payload-class satellites include a variety of spacecraft equipped with specific instruments for various scientific and technological missions. These include communications satellites like Starlink; space stations such as the ISS; scientific satellites like the Hubble; Earth observation satellites from companies like Planet Labs, Umbra, and HawkEye 360; GPS; miniature CubeSats for education and research; and military/defense satellites.

Loading next visibility...
Identifier
47845, 2021-018BL
Orbit
LEO
Country
Flag of USUS
Related business
Manufacturer
SpaceX/Seattle
Mission
Operational Commercial Communications
Bus & Motor
STARLINK, Unknown motor
Mass
260 kg wet, ~248 kg dry
Launch date (UTC)
2021-03-11 (5 years ago)
Launch vehicle
FALCON 9
Launch site
Air Force Eastern Test Range (AFETR)
Object type
Payload
Rocket body
Debris
Shape & HBR
Box + 1 Pan, 10.1 m
Radar Cross Section
13.562 m², Large (>1 m²)

Expand to show TLE details & history
Last TLE update: 7 hours ago

TLE from 7 hours ago
0 STARLINK-2453
1 47845U 21018BL  26035.74112896 -.00002557  00000-0 -15283-3 0  9997
2 47845  53.0571  39.5299 0001897  87.8983 272.2223 15.06393890271639
Epoch: 2026-02-04T17:47Z
TLE epoch observation values (Epoch: 2026-02-04T17:47:13.542Z)
Latitude
-0.00002°
Longitude
-2.1799°
Altitude
548.059 km
Speed
7.589 km/s
True Right ascension
02h 38m 07s
True Declination
0° 00' 00"
Sunlit
Object was in daylight at epoch
Visualization orbit readout
Latitude
Unknown
Longitude
Unknown
Altitude
Unknown
Speed
Unknown
Apparent Right ascension
Unknown
Apparent Declination
Unknown
Sunlit
N/A
Visualization observer readout
Local Sidereal Time
02:36:46
Azimuth
Unknown
Elevation
Unknown
Doppler factor
Unknown
Orbital elements
Apogee altitude
548.814 km
Perigee altitude
546.187 km
Semi-major axis
6,925.638 km
Eccentricity
0.00019
Inclination
53.0571°
RAAN
39.5299°
Arg. of periapsis
87.8983°
True anomaly
272.20058°
Mean anomaly
272.2223°
Eccentric anomaly
272.21144°
Mean motion
3.76577 °/min
Orbital period
95.6 mins
BSTAR
-0.00015283
Loading maneuver chart data...
Computing Atmospheric mass density...
Loading historical data...
Loading historical data...
Loading historical data...
Loading historical data...
Loading historical data...
Loading historical data...
Loading historical data...

Documentation

Showing up to 5 results
|